This is the latest recevied weather packets stored in our database for station/object DL1NER. If no packets are shown the sender has not sent any weather packets the latest 10 day(s).
| Time | Temp. | Humidity | Pressure | Rain* | Wind** | Luminosity | Snow |
|---|---|---|---|---|---|---|---|
| 1777649410 | 23.33° C | 32% | 1025.5 hPa | 0 mm | - | 0 W/m² | - |
| 1777648809 | 23.33° C | 33% | 1025.6 hPa | 0 mm | - | 0 W/m² | - |
| 1777648209 | 23.33° C | 29% | 1025.9 hPa | 0 mm | - | 0 W/m² | - |
| 1777647609 | 22.78° C | 31% | 1025.9 hPa | 0 mm | - | 0 W/m² | - |
| 1777647008 | 23.33° C | 30% | 1026.1 hPa | 0 mm | - | 0 W/m² | - |
| 1777646410 | 22.78° C | 31% | 1026.1 hPa | 0 mm | - | 0 W/m² | - |
| 1777645809 | 23.33° C | 31% | 1026.1 hPa | 0 mm | - | 0 W/m² | - |
| 1777645208 | 22.78° C | 30% | 1026.3 hPa | 0 mm | - | 0 W/m² | - |
| 1777644008 | 22.78° C | 32% | 1026.3 hPa | 0 mm | - | 0 W/m² | - |
| 1777643408 | 22.78° C | 31% | 1026.7 hPa | 0 mm | - | 0 W/m² | - |
| 1777642808 | 22.78° C | 31% | 1026.7 hPa | 0 mm | - | 0 W/m² | - |
| 1777642208 | 22.78° C | 30% | 1026.9 hPa | 0 mm | - | 0 W/m² | - |
| 1777641608 | 22.78° C | 30% | 1026.9 hPa | 0 mm | - | 0 W/m² | - |
| 1777641008 | 22.78° C | 31% | 1026.9 hPa | 0 mm | - | 0 W/m² | - |
| 1777640409 | 22.78° C | 33% | 1027 hPa | 0 mm | - | 0 W/m² | - |
| 1777639808 | 21.67° C | 33% | 1027.1 hPa | 0 mm | - | 0 W/m² | - |
| 1777639208 | 21.67° C | 35% | 1027.4 hPa | 0 mm | - | 0 W/m² | - |
| 1777638009 | 22.22° C | 31% | 1027.5 hPa | 0 mm | - | 0 W/m² | - |
| 1777637408 | 21.67° C | 33% | 1027.5 hPa | 0 mm | - | 0 W/m² | - |
| 1777636807 | 21.67° C | 37% | 1027.6 hPa | 0 mm | - | 0 W/m² | - |
| 1777636207 | 21.11° C | 33% | 1027.6 hPa | 0 mm | - | 0 W/m² | - |
| 1777635612 | 21.11° C | 33% | 1027.6 hPa | 0 mm | - | 0 W/m² | - |
| 1777635012 | 20.56° C | 34% | 1027.7 hPa | 0 mm | - | 0 W/m² | - |
| 1777634412 | 20.56° C | 32% | 1028 hPa | 0 mm | - | 0 W/m² | - |
| 1777633812 | 20.56° C | 33% | 1028.2 hPa | 0 mm | - | 0 W/m² | - |
* Rain latest hour (hover to see other rain measurements)
** Current wind speed in m/s (hover to see current wind gust speed)